Regional Weather Roundup
Issued by NWS

Home | Current Version | Previous Version | Text Only | Print | Product List | Glossary Off
Versions: 1 2 3 4 5 6 7 8 9 10 11 12 13 14 15 16 17 18 19 20 21 22 23 24 25 26 27 28 29 30 31 32 33 34 35 36 37 38 39 40 41 42 43 44 45 46 47 48 49 50

000
ASUS43 KMPX 280810
RWRMN
WEATHER ROUNDUP FOR MINNESOTA
NATIONAL WEATHER SERVICE TWIN CITIES/CHANHASSEN MN
300 AM CDT FRI JUL 28 2017


NOTE: "FAIR" INDICATES FEW OR NO CLOUDS BELOW 12,000 FEET WITH NO
SIGNIFICANT WEATHER AND/OR OBSTRUCTIONS TO VISIBILITY. N/A MEANS
CURRENT SKY AND/OR WEATHER CONDITIONS ARE NOT AVAILABLE.

MNZ060>063-068>070-280900-
   Twin Cities Metro

CITY           SKY/WX    TMP DP  RH WIND       PRES   REMARKS
TWIN CITIES    PTCLDY    69  60  73 CALM      30.06R
ST PAUL        PTCLDY    67  61  81 N3        30.06R
CRYSTAL        PTCLDY    65  59  81 CALM      30.05R
BLAINE         CLEAR     63  63 100 CALM      30.06S
LAKEVILLE      CLEAR     59  59 100 CALM      30.06R
EDEN PRAIRIE   PTCLDY    68  62  81 NE3       30.05R
SOUTH ST PAUL  PTCLDY    68  59  72 CALM      30.05S
LAKE ELMO      FAIR      61  61 100 CALM      30.08R
$$
MNZ001>005-007-008-013>017-022>024-027-028-280900-
   Northwest Minnesota

CITY           SKY/WX    TMP DP  RH WIND       PRES   REMARKS
BEMIDJI        CLEAR     55  52  90 CALM      30.10S
HALLOCK        CLEAR     59  57  94 CALM      30.06S
ROSEAU         CLEAR     59  54  82 CALM      30.08R HAZE
WARROAD        CLEAR     57  55  94 CALM      30.09R FOG
THIEF RVR FALL CLEAR     61  59  93 CALM      30.09S
CROOKSTON      CLEAR     63  59  88 CALM      30.08R
FOSSTON        CLEAR     57  54  88 CALM      30.10S
DETROIT LAKES  CLEAR     63  61  94 E5        30.11S
MOORHEAD       CLEAR     61  55  82 CALM      30.08S
PARK RAPIDS    CLEAR     61  57  87 CALM      30.10S
MAHNOMEN       FAIR      57  55  94 CALM      30.09S
$$
MNZ006-009>011-018-025>026-280900-
   North Central Minnesota

CITY           SKY/WX    TMP DP  RH WIND       PRES   REMARKS
BAUDETTE       FOG       56  56 100 CALM      30.08S VSB 1/2
FLAG ISLAND    CLEAR     70  63  78 CALM      30.07S
INTL FALLS     CLEAR     54  53  97 CALM      30.09R
WASKISH        PTCLDY    55  54  94 CALM      30.10R FOG
BIG FORK       FOG       54  54 100 CALM      30.10S VSB 3/4
LONGVILLE      CLEAR     55  55 100 CALM      30.10S FOG
GRAND RAPIDS   CLEAR     56  56 100 CALM      30.12R FOG
CRANE LAKE     CLEAR     52  52 100 CALM      30.11S
ORR            CLEAR     57  55  94 CALM      30.08S
COOK             N/A     54  54 100 CALM      30.11S
WALKER         FAIR      56  56  99 CALM      30.10S
$$
MNZ012-019>021-037-280900-
   Northeast Minnesota

CITY           SKY/WX    TMP DP  RH WIND       PRES   REMARKS
DULUTH         CLEAR     54  53  97 S3        30.11R
ELY            CLEAR     54  54 100 CALM      30.11S
HIBBING        CLEAR     50  50 100 CALM      30.11R FOG
EVELETH        CLEAR     53  50  90 CALM      30.12S
DULUTH HARBOR  CLEAR     63  55  77 NE5       30.10S
TWO HARBORS    CLEAR     55  50  82 CALM      30.09R HAZE
SILVER BAY     CLEAR     52  52 100 CALM      30.09S
GRAND MARAIS     N/A     61  56  83 CALM      30.09R
G MARAIS ARPRT PTCLDY    52  48  87 CALM      30.14S
$$
MNZ029>031-032-039>041-046>048-054>057-064-280900-
   West Central Minnesota

CITY           SKY/WX    TMP DP  RH WIND       PRES   REMARKS
FERGUS FALLS   CLEAR     66  61  82 E6        30.07S
WHEATON        PTCLDY    61  57  88 CALM      30.09S
MORRIS         MOCLDY    64  61  88 CALM      30.07R
ALEXANDRIA     CLOUDY    65  61  87 NE5       30.10S
ELBOW LAKE     FAIR      68  64  88 E5        30.08S
WADENA         CLEAR     55  55 100 CALM      30.09S
GLENWOOD       PTCLDY    63  61  94 NE5       30.09R
APPLETON       PTCLDY    64  59  82 CALM      30.07R
BENSON         FOG       61  59  94 CALM      30.09R VSB 1/4
ORTONVILLE       N/A     66  63  88 E3          N/A
MADISON        MOCLDY    63  63 100 CALM      30.07S
WILLMAR        FAIR      64  63  94 CALM      30.08S
$$
MNZ033>034-036-042>043-049>051-058-059-280900-
   Central Minnesota

CITY           SKY/WX    TMP DP  RH WIND       PRES   REMARKS
ST CLOUD       CLEAR     61  60  97 CALM      30.07S
SAUK CENTRE    FAIR      59  59  99 CALM      30.09R
PAYNESVILLE    MOCLDY    58  57  96 CALM      30.09R
AITKIN         CLEAR     55  54  94 CALM      30.09R FOG
PINE RIVER     CLEAR     55  55 100 CALM      30.12F
BRAINERD       FOG       60  60 100 CALM      30.09S VSB 1/4
STAPLES        CLEAR     57  57 100 CALM      30.09S
LONG PRAIRIE   FAIR      61  61 100 CALM      30.10R
LITTLE FALLS   CLEAR     59  57  94 CALM      30.09S FOG
LITCHFIELD     PTCLDY    66  64  94 CALM      30.08R
BUFFALO        PTCLDY    63  59  87 CALM      30.07S
MAPLE LAKE     PTCLDY    62  61  97 CALM      30.08R
HUTCHINSON     CLEAR     64  62  96 CALM      30.08R
$$
MNZ037-044-045-052-053-280900-
   East Central Minnesota

CITY           SKY/WX    TMP DP  RH WIND       PRES   REMARKS
PRINCETON      CLEAR     63  61  94 CALM      30.08S
MORA           CLEAR     59  57  94 CALM      30.11R FOG
CAMBRIDGE      CLEAR     66  57  72 CALM      30.06S
RUSH CITY      PTCLDY    60  57  91 CALM      30.09R
MOOSE LAKE     CLEAR     55  54  94 CALM      30.09R
HINCKLEY       FAIR      59  59 100 CALM      30.09S
CLOQUET        CLEAR     55  52  88 CALM      30.11S
MCGREGOR       CLEAR     55  54  94 CALM      30.11R
$$
MNZ071>073-080-081-089-090-097-098-280900-
   Southwest Minnesota

CITY           SKY/WX    TMP DP  RH WIND       PRES   REMARKS
MONTEVIDEO     MOCLDY    63  57  82 CALM      30.07S
CANBY          PTCLDY    62  61  94 CALM      30.08S
MARSHALL       CLOUDY    63  61  93 CALM      30.07F
REDWOOD FALLS  PTCLDY    66  60  81 CALM      30.06S
OLIVIA         CLOUDY    64  59  82 CALM      30.06S
PIPESTONE      PTCLDY    64  59  82 CALM      30.09S
WINDOM         CLEAR     63  59  88 CALM      30.08S
WORTHINGTON    CLEAR     59  57  93 NW5       30.09S
JACKSON        CLEAR     61  61 100 CALM      30.08S FOG
TRACY          CLOUDY    65  63  91 CALM      30.08S
SLAYTON        HVY RAIN  60  57  89 NW3       30.10S
$$
MNZ065>067-074>077-082>085-091>093-280900-
   South Central Minnesota

CITY           SKY/WX    TMP DP  RH WIND       PRES   REMARKS
MANKATO        PTCLDY    65  62  90 CALM      30.06S
NEW ULM        PTCLDY    68  59  73 CALM      30.06S
ST JAMES       CLEAR     63  61  94 CALM      30.07S
FAIRMONT       CLEAR     63  60  90 CALM      30.06F
GLENCOE        CLOUDY    64  64  99 CALM      30.06R
FARIBAULT      PTCLDY    63  63 100 CALM      30.06S
OWATONNA       CLEAR     61  59  94 CALM      30.06S FOG
WASECA         CLEAR     59  57  94 CALM      30.07S
ALBERT LEA     CLEAR     64  63  94 CALM      30.06S
$$
MNZ078>079-086>088-094>096-280900-
   Southeast Minnesota

CITY           SKY/WX    TMP DP  RH WIND       PRES   REMARKS
ROCHESTER      CLEAR     62  61  96 NW7       30.05F
RED WING       CLEAR     64  59  82 CALM      30.04S
STANTON        PTCLDY    61  59  94 CALM      30.04S
DODGE CENTER   CLEAR     61  59  94 CALM      30.06S
WINONA         CLEAR     63  63 100 CALM      30.04R
AUSTIN         CLEAR     63  61  94 CALM      30.04F
PRESTON        CLEAR     64  59  86 CALM      30.05S
$$
ABBREVIATIONS USED IN REMARKS
   TC - TEMPERATURES IN CELSIUS
  WCI - WIND CHILL INDEX
   HX - HEAT INDEX
  VSB - VISIBILITY
$$



USA.gov is the U.S. government's official web portal to all federal, state and local government web resources and services.